Weather History for Fort Myers Airport, FL

Change the Weather History Date:

Tuesday, November 27, 2012

  Actual Average Record
Temperature  
Mean Temperature 68 °F -  
Max Temperature 80 °F 81 °F 90 °F (1948)
Min Temperature 57 °F 61 °F 41 °F (1949)
Cooling Degree Days 4    
Growing Degree Days 18 (Base 50)    
Moisture  
Dew Point 61 °F    
Average Humidity 80    
Maximum Humidity 97    
Minimum Humidity 47    
Precipitation  
Precipitation 0.04 in - - ()
Sea Level Pressure  
Sea Level Pressure 30.14 in    
Wind  
Wind Speed 3 mph (South)    
Max Wind Speed 13 mph    
Max Gust Speed -    
Visibility 9 miles    
Events      
Averages and records for this station are not official NWS values.
T = Trace of Precipitation, MM = Missing Value Source: NWS Daily Summary

Daily Weather History Graph

Daily Weather History Graph

Search for Another Location

Airport:

Trip Planner

Search our weather history database for the weather conditions in past years. The results will help you decide how hot, cold, wet, or windy it might be!

Date:

Astronomy

Nov. 27, 2012 Rise Set
Actual Time 6:55 AM EST 5:34 PM EST
Civil Twilight 6:30 AM EST 5:58 PM EST
Nautical Twilight 6:02 AM EST 6:27 PM EST
Astronomical Twilight 5:34 AM EST 6:55 PM EST
Moon 5:03 PM EST (11/27) 6:01 AM EST (11/27)
Length of Visible Light 11h 28m
Length of Day
10h 38m
Waxing Gibbous, 99% of the Moon is Illuminated
Nov 27
Waxing Gibbous
Nov 28
Full
Dec 6
Last Quarter
Dec 13
New
Dec 20
First Quarter

Hourly Weather History & Observations

Time (EST) Temp. Heat Index Dew Point Humidity Pressure Visibility Wind Dir Wind Speed Gust Speed Precip Events Conditions
12:53 AM 62.1 °F - 57.9 °F 86% 30.17 in 10.0 mi Calm Calm - N/A   Scattered Clouds
1:53 AM 60.1 °F - 55.9 °F 86% 30.16 in 10.0 mi Calm Calm - N/A   Clear
2:53 AM 59.0 °F - 55.9 °F 90% 30.15 in 9.0 mi Calm Calm - N/A   Clear
3:53 AM 57.0 °F - 54.0 °F 89% 30.14 in 7.0 mi Calm Calm - N/A   Clear
4:53 AM 57.9 °F - 55.9 °F 93% 30.14 in 5.0 mi ENE 3.5 mph - N/A   Clear
5:53 AM 57.9 °F - 57.0 °F 97% 30.14 in 5.0 mi East 3.5 mph - N/A   Clear
6:53 AM 59.0 °F - 57.0 °F 93% 30.15 in 6.0 mi East 3.5 mph - N/A   Clear
7:53 AM 61.0 °F - 57.9 °F 90% 30.16 in 4.0 mi East 3.5 mph - N/A   Clear
8:53 AM 69.1 °F - 62.1 °F 78% 30.17 in 10.0 mi ESE 4.6 mph - N/A   Clear
9:53 AM 75.0 °F - 63.0 °F 66% 30.19 in 10.0 mi SSE 12.7 mph - N/A   Clear
10:53 AM 75.0 °F - 64.9 °F 71% 30.18 in - SSE 9.2 mph - 0.04 in   Clear
11:53 AM 77.0 °F - 64.0 °F 64% 30.17 in 10.0 mi South 5.8 mph - N/A   Scattered Clouds
12:53 PM 78.1 °F - 64.0 °F 62% 30.13 in 10.0 mi SSW 4.6 mph - N/A   Partly Cloudy
1:53 PM 79.0 °F - 63.0 °F 58% 30.10 in 10.0 mi Calm Calm - N/A   Clear
2:53 PM 80.1 °F 80.6 °F 57.9 °F 47% 30.09 in 10.0 mi SW 11.5 mph - N/A   Clear
3:53 PM 78.1 °F - 62.1 °F 58% 30.10 in 10.0 mi West 11.5 mph - N/A   Clear
4:53 PM 75.0 °F - 63.0 °F 66% 30.11 in 10.0 mi WSW 10.4 mph - N/A   Clear
5:53 PM 71.1 °F - 64.0 °F 78% 30.11 in 10.0 mi WSW 6.9 mph - N/A   Clear
6:53 PM 70.0 °F - 64.0 °F 81% 30.13 in 10.0 mi WSW 4.6 mph - N/A   Clear
7:53 PM 68.0 °F - 64.9 °F 90% 30.14 in 10.0 mi Calm Calm - N/A   Clear
8:53 PM 66.9 °F - 64.0 °F 90% 30.15 in 10.0 mi Calm Calm - N/A   Clear
9:53 PM 66.9 °F - 64.9 °F 93% 30.13 in 10.0 mi Calm Calm - N/A   Overcast
10:53 PM 64.9 °F - 63.0 °F 93% 30.13 in 10.0 mi Calm Calm - N/A   Mostly Cloudy
11:53 PM 64.9 °F - 64.0 °F 97% 30.13 in 7.0 mi Calm Calm - N/A   Clear